Flag for Ecuador Weather past 2 weeks in Guayaquil, Ecuador

Now
72 °F

Partly sunny.


Feels Like: 74 °F
Forecast: 72 / 87 °F
Wind: 6 mph from Southwest

Location: Guayaquil / Simon Bolivar

Current Time: Jul 25, 2014 at 9:02:59 AM

Latest Report: Jul 25, 2014 at 8:00 AM


Visibility: N/A

Pressure: 29.89 "Hg

Humidity: 73%

Dew point: 63 °F

Location of GuayaquilLocation

Historic Weather in Guayaquil — Graph

°F

Guayaquil temperature yesterday

Maximum temperature yesterday: 86 °F (at 4:00 PM)
Minimum temperature yesterday: 72 °F (at 1:00 AM)
Average temperature yesterday: 77 °F

Past Weeks' High & Low Weather Summary

 TemperatureHumidityPressure
High91 °F (Jul 10, 3:00 PM)88% (Jul 22, 4:00 AM)29.92 "Hg (Jul 22, 4:00 AM)
Low70 °F (Jul 22, 4:00 AM)49% (Jul 10, 3:00 PM)29.65 "Hg (Jul 10, 4:00 PM)
Average78 °F71%29.83 "Hg
* Reported Jul 10 7:00 AM — Jul 25 7:00 AM, Guayaquil, Weather by CustomWeather, © 2014

Note: Actual official high and low records may vary slightly from our data, if they occured in-between our weather recording intervals... More about our weather records

Advertising

Guayaquil weather history for previous 24 hours

 ConditionsComfort  
Time TempWeatherWind HumidityBarometerVisibility
7:00 AM
Jul 25
70 °FPartly sunny.7 mph78%29.86 "HgN/A
6:00 AM70 °FPassing clouds.6 mph83%29.86 "HgN/A
5:00 AM70 °FMild.N/A88%29.83 "HgN/A
4:00 AM70 °FPassing clouds.13 mph88%29.83 "HgN/A
3:00 AM70 °FMostly cloudy.12 mph88%29.83 "HgN/A
2:00 AM70 °FPartly cloudy.12 mph88%29.83 "HgN/A
1:00 AM72 °FPassing clouds.13 mph83%29.83 "HgN/A
12:00 AM72 °FPassing clouds.14 mph83%29.86 "HgN/A
11:00 PM
Jul 24
72 °FPassing clouds.9 mph83%29.83 "HgN/A
10:00 PM73 °FPassing clouds.16 mph78%29.83 "HgN/A
9:00 PM75 °FPassing clouds.14 mph74%29.80 "HgN/A
8:00 PM77 °FPassing clouds.15 mph74%29.77 "HgN/A
7:00 PM79 °FPartly cloudy.12 mph74%29.74 "HgN/A
6:00 PM82 °FPartly sunny.7 mph62%29.74 "HgN/A
5:00 PM82 °FScattered clouds.6 mph66%29.71 "HgN/A
4:00 PM86 °FScattered clouds.3 mph55%29.71 "HgN/A
3:00 PM84 °FScattered clouds.3 mph58%29.71 "HgN/A
2:00 PM84 °FScattered clouds.5 mph62%29.74 "HgN/A
1:00 PM84 °FScattered clouds.8 mph62%29.77 "HgN/A
12:00 PM81 °FBroken clouds.8 mph70%29.80 "HgN/A
11:00 AM79 °FPartly sunny.7 mph70%29.80 "HgN/A
10:00 AM75 °FMostly cloudy.9 mph78%29.83 "HgN/A
9:00 AM75 °FMostly cloudy.9 mph78%29.83 "HgN/A
Weather by CustomWeather, © 2014

See weather overviewHow to use our weather pages